Tracking 33188 objects as of 11-Feb-2026
HD Live streaming from Space Station
objects crossing your sky now

USA 453

Track USA 453 now!
10-day predictions


NORAD ID: 62352
Int'l Code: 2024-243N
Perigee: 582.5 km
Apogee: 585.9 km
Inclination: 70.0 °
Period: 96.2 minutes
Semi major axis: 6955 km
RCS: Unknown
Launch date: December 17, 2024
Source: United States (US)
Launch site: AIR FORCE WESTERN TEST RANGE (AFWTR)
Your satellite tracking list
Your tracking list is empty




NASA's NSSDC Master Catalog

Two Line Element Set (TLE):
1 62352U 24243N   26030.77318067 0.00000000  00000-0  00000-0 0    06
2 62352  69.9960 267.1630 0002500 318.5316  41.4684 14.96713156    08
Source of the keplerian elements: McCants